Location: Bluff Heights
(33.7692°N, 118.1592°W)
Time: 12:51:51
(UTC+00:00)

Transit 2A - All Passes

Search period start: 04 August 2021 00:00
Search period end: 14 August 2021 00:00
Orbit: 598 x 960 km, 66.7° (Epoch: 04 August)

Date Brightness Start Highest point End Pass type
(mag) Time Alt. Az. Time Alt. Az. Time Alt. Az.
04 Aug - 11:52:57 10° SSE 11:56:02 19° ESE 11:59:10 10° ENE visible
04 Aug - 13:35:00 10° WSW 13:38:51 30° WNW 13:42:55 10° N daylight
04 Aug - 20:42:56 10° NNE 20:44:58 12° NE 20:47:04 10° ENE daylight
04 Aug - 22:23:08 10° NNW 22:28:53 79° ENE 22:35:05 10° SSE daylight
05 Aug - 00:08:59 10° WNW 00:11:33 13° WSW 00:14:11 10° SW daylight
05 Aug - 11:20:43 10° ESE 11:22:03 11° ESE 11:23:24 10° E visible
05 Aug - 13:00:23 10° SW 13:04:34 49° WNW 13:09:00 10° NNE daylight
05 Aug - 21:49:05 10° NNW 21:54:40 54° ENE 22:00:41 10° SE daylight
05 Aug - 23:33:22 10° WNW 23:37:32 20° WSW 23:41:53 10° SSW daylight
06 Aug - 12:26:02 10° SSW 12:30:21 82° WNW 12:34:56 10° NNE visible
06 Aug - 21:15:08 10° N 21:20:24 37° ENE 21:26:02 10° SE daylight
06 Aug - 22:58:29 10° NW 23:03:29 30° WSW 23:08:46 10° SSW daylight
07 Aug - 11:51:58 10° SSW 11:56:13 59° ESE 12:00:40 10° NE visible
07 Aug - 13:37:58 10° WNW 13:39:50 12° NW 13:41:44 10° NNW daylight
07 Aug - 20:41:20 10° N 20:46:05 26° NE 20:51:06 10° ESE daylight
07 Aug - 22:23:54 10° NW 22:29:24 45° WSW 22:35:15 10° S daylight
08 Aug - 11:18:12 10° S 11:22:08 35° ESE 11:26:14 10° NE visible
08 Aug - 13:02:16 10° W 13:05:22 19° NW 13:08:38 10° N daylight
08 Aug - 20:07:46 10° N 20:11:41 19° NE 20:15:48 10° E daylight
08 Aug - 21:49:30 10° NNW 21:55:15 66° WSW 22:01:25 10° SSE daylight
09 Aug - 10:44:50 10° SSE 10:48:07 21° ESE 10:51:29 10° ENE visible
09 Aug - 12:27:13 10° WSW 12:31:00 28° NW 12:35:00 10° N visible
09 Aug - 19:34:39 10° NNE 19:37:14 13° NE 19:39:52 10° ENE daylight
09 Aug - 21:15:17 10° NNW 21:21:05 85° ENE 21:27:19 10° SSE daylight
09 Aug - 23:01:35 10° W 23:03:42 12° WSW 23:05:52 10° SW daylight
10 Aug - 10:12:14 10° SE 10:14:07 13° ESE 10:16:03 10° ENE visible
10 Aug - 11:52:32 10° SW 11:56:42 45° WNW 12:01:08 10° NNE visible
10 Aug - 20:41:11 10° NNW 20:46:52 59° ENE 20:52:59 10° SE daylight
10 Aug - 22:25:42 10° WNW 22:29:42 19° WSW 22:33:51 10° SSW daylight
11 Aug - 11:18:08 10° SSW 11:22:28 75° WNW 11:27:05 10° NNE visible
11 Aug - 20:07:12 10° N 20:12:36 40° ENE 20:18:23 10° SE daylight
11 Aug - 21:50:43 10° NW 21:55:39 28° WSW 22:00:50 10° SSW daylight
12 Aug - 10:44:01 10° SSW 10:48:18 66° ESE 10:52:52 10° NNE visible
12 Aug - 12:30:28 10° WNW 12:32:01 11° NW 12:33:36 10° NNW visible
12 Aug - 19:33:23 10° N 19:38:18 28° ENE 19:43:30 10° ESE daylight
12 Aug - 21:16:06 10° NW 21:21:34 41° WSW 21:27:23 10° S daylight
13 Aug - 10:10:12 10° S 10:14:13 38° ESE 10:18:27 10° NE visible
13 Aug - 11:54:34 10° W 11:57:32 17° NW 12:00:40 10° N visible
13 Aug - 18:59:44 10° N 19:03:55 20° NE 19:08:18 10° E daylight
13 Aug - 20:41:40 10° NW 20:47:27 62° WSW 20:53:36 10° SSE daylight
